Tracking 19651 objects as of 22-Apr-2019
HD Live streaming from Space Station
objects crossing your sky now

COSMOS 2494 (SKRL 756)

Track COSMOS 2494 (SKRL 756) now!
10-day predictions
COSMOS 2494 (SKRL 756) is classified as:


NORAD ID: 39491
Int'l Code: 2013-078B
Perigee: 591.1 km
Apogee: 620.1 km
Inclination: 82.4 °
Period: 96.7 minutes
Semi major axis: 6976 km
RCS: Unknown
Launch date: December 28, 2013
Source: Commonwealth of Independent States (former USSR) (CIS)
Launch site: PLESETSK MISSILE AND SPACE COMPLEX (PKMTR)
aabbcc
Your satellite tracking list
Your tracking list is empty




NASA's NSSDC Master Catalog

Two Line Element Set (TLE):
1 39491U 13078B   19112.19956558  .00000216  00000-0  19871-4 0  9996
2 39491  82.4180 253.4220 0020830 304.6185  55.3068 14.89829893288757
Source of the keplerian elements: AFSPC